THORAD DELTA 1 DEB, 8399

Orbit data source: Space-Track

THORAD DELTA 1 DEB, 8399 is space debris in SSO originally from a launch on Fri, 15 Nov 1974 UTC launched from the Air Force Western Test Range (AFWTR). Debris objects in space refer to the collection of defunct objects orbiting the Earth. Examples of debris include non-operational satellites, rocket bodies, and fragments generated from explosions, collisions, or faulty payload assembly.

Loading next visibility...
Identifier
8399, 1974-089CB
Orbit
SSO
Country
Flag of USUS
Related business
Manufacturer
Unknown
Mission
Spacecraft
Bus & Motor
Unknown
Mass
Unknown
Launch date (UTC)
1974-11-15 (51 years ago)
Launch vehicle
Unknown
Launch site
Air Force Western Test Range (AFWTR)
Object type
Payload
Rocket body
Debris
Shape & HBR
Unknown shape, 0.2 m
Radar Cross Section
Small (<0.1 m²)

Expand to show TLE details & history
Last TLE update: 9 hours ago

TLE from 9 hours ago
0 THORAD DELTA 1 DEB
1  8399U 74089CB  26036.53861231  .00000031  00000-0  54213-3 0  9995
2  8399 101.7352  18.3182 0155386 205.7497 272.9347 12.38885403318823
Epoch: 2026-02-05T12:55Z
TLE epoch observation values (Epoch: 2026-02-05T12:55:36.103Z)
Latitude
60.91298°
Longitude
-109.45763°
Altitude
1,517.166 km
Speed
7.114 km/s
True Right ascension
14h 40m 31s
True Declination
60° 46' 51"
Sunlit
Object was in daylight at epoch
Visualization orbit readout
Latitude
Unknown
Longitude
Unknown
Altitude
Unknown
Speed
Unknown
Apparent Right ascension
Unknown
Apparent Declination
Unknown
Sunlit
N/A
Visualization observer readout
Local Sidereal Time
23:57:02
Azimuth
Unknown
Elevation
Unknown
Doppler factor
Unknown
Orbital elements
Apogee altitude
1,631.445 km
Perigee altitude
1,386.338 km
Semi-major axis
7,887.028 km
Eccentricity
0.01554
Inclination
101.7352°
RAAN
18.3182°
Arg. of periapsis
205.7497°
True anomaly
271.15496°
Mean anomaly
272.9347°
Eccentric anomaly
272.04497°
Mean motion
3.09865 °/min
Orbital period
116.18 mins
BSTAR
0.00054213
Loading maneuver chart data...
Computing Atmospheric mass density...

Documentation

Showing up to 5 results
|